PDA006 UKBB-LETL

Flight info

Callsign PDA006
Flight time N/A
Altitude 40000
Route VESEL M141 IVF M991 MALBE/N0456F400 DCT AMRAX DCT SASAL DCT TIBRO/N0463F410 DCT RIDVA DCT BORDI DCT PADKO UM984 DIVKO G7 MAMES M984 BISBA N975 NEXAS
Aircraft B772/H-SDE2E3FGHIJ5LORVWXY/LB1D1

Departure

Time N/A
Airport Boryspil International Airport (UKBB)

Arrival

Time 2026-05-03 20:16
Airport Teruel Airport (LETL)
Time Latitude Longitude Altitude Speed Heading
2026-05-03 20:15 40.43730 -1.21898 3556 ft 145 kts 177°
2026-05-03 20:15 40.42731 -1.21835 3382 ft 145 kts 177°
2026-05-03 20:15 40.41759 -1.21792 3357 ft 126 kts 177°
2026-05-03 20:15 40.41253 -1.21760 3352 ft 90 kts 177°
2026-05-03 20:16 40.40781 -1.21734 3368 ft 57 kts 178°
2026-05-03 20:16 40.40461 -1.21716 3382 ft 28 kts 177°
2026-05-03 20:16 40.40283 -1.21704 3378 ft 26 kts 177°
2026-05-03 20:16 40.40116 -1.21688 3377 ft 18 kts 166°
2026-05-03 20:17 40.40019 -1.21625 3378 ft 14 kts 161°
2026-05-03 20:17 40.39978 -1.21676 3377 ft 11 kts 300°
2026-05-03 20:17 40.40051 -1.21696 3376 ft 11 kts 357°
2026-05-03 20:17 40.40163 -1.21704 3375 ft 22 kts 357°
2026-05-03 20:18 40.40346 -1.21715 3381 ft 29 kts 357°
2026-05-03 20:18 40.40548 -1.21726 3371 ft 30 kts 358°
2026-05-03 20:18 40.40756 -1.21736 3367 ft 30 kts 358°
2026-05-03 20:18 40.40968 -1.21746 3356 ft 31 kts 357°
2026-05-03 20:19 40.41182 -1.21758 3354 ft 30 kts 358°
2026-05-03 20:19 40.41348 -1.21782 3364 ft 15 kts 328°
2026-05-03 20:19 40.41367 -1.21907 3355 ft 15 kts 266°
2026-05-03 20:19 40.41362 -1.22011 3357 ft 7 kts 265°
2026-05-03 20:20 40.41336 -1.22064 3364 ft 7 kts 210°
2026-05-03 20:20 40.41286 -1.22074 3365 ft 7 kts 179°
2026-05-03 20:20 40.41245 -1.22074 3364 ft 2 kts 194°
2026-05-03 20:20 40.41231 -1.22092 3369 ft 3 kts 236°
2026-05-03 20:21 40.41225 -1.22119 3364 ft 4 kts 263°
2026-05-03 20:21 40.41225 -1.22152 3361 ft 4 kts 269°
2026-05-03 20:21 40.41225 -1.22178 3360 ft 1 kts 268°
2026-05-03 20:21 40.41225 -1.22179 3360 ft 0 kts 268°